| time (UTC) | temp F | wind direction | speed MPH | gust MPH | rain 1hr in | rain 24hr in | rain mn in | humidity % | barometer mb |
| 20260508173020 | 56 | 82 | 0.0 | 0.0 | 0.00 | 1.02 | 0.01 | 60 | 1001.6 |
| 20260508171523 | 56 | 29 | 0.0 | 0.0 | 0.00 | 1.02 | 0.01 | 63 | 1001.7 |
| 20260508170018 | 57 | 46 | 0.0 | 0.0 | 0.00 | 1.02 | 0.01 | 64 | 1001.8 |
| 20260508164514 | 55 | 100 | 0.0 | 0.0 | 0.00 | 1.02 | 0.01 | 66 | 1002.1 |
| 20260508163011 | 54 | 29 | 0.0 | 0.0 | 0.00 | 1.02 | 0.01 | 68 | 1002.0 |
| 20260508161510 | 54 | 4 | 0.0 | 0.0 | 0.00 | 1.02 | 0.01 | 68 | 1001.9 |
| 20260508160018 | 54 | 46 | 0.0 | 0.0 | 0.00 | 1.02 | 0.01 | 69 | 1001.9 |
| 20260508154507 | 54 | 34 | 0.0 | 0.0 | 0.00 | 1.03 | 0.01 | 71 | 1002.2 |
| 20260508153006 | 54 | 68 | 0.0 | 0.0 | 0.00 | 1.03 | 0.01 | 71 | 1002.1 |
| 20260508151506 | 54 | 69 | 0.0 | 0.0 | 0.00 | 1.03 | 0.01 | 73 | 1002.0 |
| 20260508150100 | 53 | 28 | 0.0 | 0.0 | 0.00 | 1.03 | 0.01 | 74 | 1002.0 |
| 20260508144556 | 53 | 9 | 0.0 | 0.0 | 0.00 | 1.03 | 0.01 | 76 | 1002.1 |
| 20260508143104 | 53 | 36 | 0.0 | 0.0 | 0.00 | 1.03 | 0.01 | 79 | 1002.1 |
| 20260508141556 | 52 | 23 | 0.0 | 0.0 | 0.00 | 1.03 | 0.01 | 82 | 1002.2 |
| 20260508140051 | 52 | 102 | 0.0 | 0.0 | 0.00 | 1.03 | 0.01 | 84 | 1002.3 |
| 20260508134546 | 51 | 14 | 0.0 | 0.0 | 0.00 | 1.03 | 0.01 | 85 | 1002.6 |
| 20260508133053 | 50 | 46 | 0.0 | 0.0 | 0.00 | 1.03 | 0.01 | 87 | 1002.8 |
| 20260508131540 | 49 | 60 | 0.0 | 0.0 | 0.00 | 1.03 | 0.01 | 89 | 1002.9 |
| 20260508130036 | 49 | 64 | 0.0 | 0.0 | 0.00 | 1.03 | 0.01 | 92 | 1002.7 |
| 20260508124531 | 48 | 14 | 0.0 | 0.0 | 0.00 | 1.03 | 0.01 | 96 | 1002.4 |
| 20260508123030 | 47 | 19 | 0.0 | 0.0 | 0.00 | 1.03 | 0.01 | 98 | 1002.5 |
| 20260508121551 | 46 | 139 | 0.0 | 0.0 | 0.00 | 1.03 | 0.01 | 99 | 1002.4 |
| 20260508120031 | 45 | 14 | 0.0 | 0.0 | 0.00 | 1.03 | 0.01 | 99 | 1002.6 |
| 20260508114528 | 45 | 50 | 0.0 | 0.0 | 0.00 | 1.05 | 0.01 | 99 | 1002.9 |
| 20260508113028 | 44 | 36 | 0.0 | 0.0 | 0.00 | 1.05 | 0.01 | 99 | 1003.0 |
| 20260508111527 | 44 | 54 | 0.0 | 0.0 | 0.00 | 1.05 | 0.01 | 99 | 1002.8 |
| 20260508110026 | 43 | 59 | 0.0 | 0.0 | 0.00 | 1.05 | 0.01 | 99 | 1002.7 |
| 20260508104625 | 43 | 38 | 0.0 | 0.0 | 0.00 | 1.05 | 0.01 | 99 | 1002.8 |
| 20260508103023 | 43 | 67 | 0.0 | 0.0 | 0.00 | 1.05 | 0.01 | 99 | 1003.3 |
| 20260508101523 | 43 | 55 | 0.0 | 0.0 | 0.00 | 1.05 | 0.01 | 99 | 1003.0 |
| 20260508100022 | 43 | 32 | 0.0 | 0.0 | 0.00 | 1.05 | 0.01 | 99 | 1002.9 |
| 20260508094522 | 43 | 56 | 0.0 | 0.0 | 0.00 | 1.07 | 0.01 | 99 | 1003.1 |
| 20260508093023 | 43 | 38 | 0.0 | 0.0 | 0.00 | 1.07 | 0.01 | 99 | 1002.6 |
| 20260508091517 | 44 | 40 | 0.0 | 0.0 | 0.00 | 1.07 | 0.01 | 99 | 1002.4 |
| 20260508090017 | 44 | 44 | 0.0 | 0.0 | 0.00 | 1.07 | 0.01 | 99 | 1002.5 |
| 20260508084515 | 45 | 19 | 0.0 | 0.0 | 0.00 | 1.12 | 0.01 | 99 | 1002.4 |
| 20260508083039 | 45 | 29 | 0.0 | 0.0 | 0.00 | 1.12 | 0.01 | 99 | 1002.5 |
| 20260508081514 | 45 | 63 | 0.0 | 0.0 | 0.00 | 1.12 | 0.01 | 99 | 1002.0 |
| 20260508080013 | 45 | 36 | 0.0 | 0.0 | 0.00 | 1.12 | 0.01 | 99 | 1001.9 |
| 20260508074512 | 45 | 41 | 0.0 | 0.0 | 0.00 | 1.15 | 0.01 | 99 | 1002.1 |
| 20260508073011 | 44 | 65 | 0.0 | 0.0 | 0.00 | 1.15 | 0.01 | 99 | 1001.9 |
| 20260508071510 | 45 | 65 | 0.0 | 0.0 | 0.00 | 1.15 | 0.01 | 99 | 1002.0 |
| 20260508070012 | 45 | 62 | 0.0 | 0.0 | 0.00 | 1.15 | 0.01 | 99 | 1002.0 |
| 20260508064527 | 46 | 177 | 0.0 | 0.0 | 0.00 | 1.15 | 0.01 | 99 | 1002.0 |
| 20260508063008 | 46 | 177 | 0.0 | 0.0 | 0.01 | 1.15 | 0.01 | 99 | 1001.9 |
| 20260508061507 | 46 | 178 | 0.0 | 0.0 | 0.01 | 1.15 | 0.01 | 99 | 1002.1 |
| 20260508060008 | 46 | 5 | 0.0 | 0.0 | 0.01 | 1.15 | 0.01 | 99 | 1002.1 |
| 20260508054505 | 46 | 5 | 0.0 | 0.0 | 0.01 | 1.15 | 0.01 | 99 | 1002.0 |
| 20260508053004 | 46 | 290 | 0.0 | 0.0 | 0.00 | 1.14 | 0.00 | 99 | 1002.0 |
| 20260508051503 | 46 | 290 | 0.0 | 0.0 | 0.00 | 1.14 | 0.00 | 99 | 1001.8 |
| 20260508050002 | 46 | 290 | 0.0 | 0.0 | 0.00 | 1.14 | 0.00 | 99 | 1001.7 |
| 20260508044602 | 45 | 290 | 0.0 | 0.0 | 0.00 | 1.14 | 0.00 | 99 | 1001.9 |
| 20260508043100 | 45 | 290 | 0.0 | 0.0 | 0.00 | 1.14 | 0.00 | 98 | 1002.0 |
| 20260508041604 | 45 | 290 | 0.0 | 0.0 | 0.00 | 1.14 | 0.00 | 98 | 1002.2 |
| 20260508040106 | 48 | 290 | 0.0 | 0.0 | 0.00 | 1.14 | 0.00 | 99 | 1002.2 |
| 20260508034556 | 48 | 152 | 0.0 | 0.0 | 0.00 | 1.14 | 0.00 | 99 | 1002.3 |
| 20260508033050 | 48 | 183 | 0.0 | 0.0 | 0.00 | 1.14 | 0.00 | 99 | 1002.6 |
| 20260508031651 | 48 | 243 | 0.0 | 0.0 | 0.00 | 1.14 | 0.00 | 98 | 1002.6 |
| 20260508024555 | 48 | 227 | 0.0 | 0.0 | 0.00 | 1.14 | 1.14 | 98 | 1002.6 |
| 20260508023045 | 48 | 261 | 0.0 | 0.0 | 0.00 | 1.14 | 1.14 | 98 | 1002.5 |
| 20260508021545 | 48 | 189 | 0.0 | 0.0 | 0.00 | 1.14 | 1.14 | 98 | 1002.4 |
| 20260508020048 | 48 | 189 | 0.0 | 0.0 | 0.00 | 1.14 | 1.14 | 98 | 1002.4 |
| 20260508014546 | 47 | 189 | 0.0 | 0.0 | 0.00 | 1.14 | 1.14 | 98 | 1002.6 |
| 20260508013043 | 47 | 246 | 0.0 | 0.0 | 0.00 | 1.14 | 1.14 | 98 | 1002.6 |
| 20260508011556 | 47 | 274 | 0.0 | 0.0 | 0.00 | 1.14 | 1.14 | 98 | 1002.3 |
| 20260508010055 | 47 | 275 | 0.0 | 0.0 | 0.00 | 1.14 | 1.14 | 98 | 1002.5 |
| 20260508004554 | 48 | 270 | 0.0 | 0.0 | 0.00 | 1.14 | 1.14 | 97 | 1002.9 |
| 20260508003043 | 49 | 268 | 0.0 | 0.0 | 0.00 | 1.14 | 1.14 | 98 | 1002.8 |
| 20260508001542 | 49 | 198 | 0.0 | 0.0 | 0.00 | 1.14 | 1.14 | 98 | 1002.7 |
| 20260508000039 | 49 | 184 | 0.0 | 0.0 | 0.00 | 1.14 | 1.14 | 98 | 1002.5 |
| 20260507234538 | 49 | 189 | 0.0 | 0.0 | 0.00 | 1.14 | 1.14 | 98 | 1003.0 |
| 20260507233038 | 50 | 169 | 0.0 | 0.0 | 0.00 | 1.14 | 1.14 | 98 | 1002.7 |
| 20260507231540 | 50 | 170 | 0.0 | 0.0 | 0.00 | 1.14 | 1.14 | 98 | 1002.8 |
| 20260507230037 | 50 | 175 | 0.0 | 0.0 | 0.00 | 1.14 | 1.14 | 98 | 1003.2 |
| 20260507224537 | 51 | 208 | 0.0 | 0.0 | 0.00 | 1.14 | 1.14 | 98 | 1003.0 |
| 20260507223035 | 51 | 157 | 0.0 | 0.0 | 0.00 | 1.14 | 1.14 | 98 | 1003.4 |
| 20260507221537 | 51 | 225 | 0.0 | 0.0 | 0.00 | 1.14 | 1.14 | 98 | 1003.5 |
| 20260507220034 | 51 | 171 | 0.0 | 0.0 | 0.00 | 1.14 | 1.14 | 98 | 1003.5 |
| 20260507214534 | 51 | 200 | 0.0 | 0.0 | 0.01 | 1.14 | 1.14 | 98 | 1003.4 |
| 20260507213033 | 50 | 210 | 0.0 | 0.0 | 0.03 | 1.14 | 1.14 | 98 | 1003.3 |
| 20260507211532 | 50 | 251 | 0.0 | 0.0 | 0.08 | 1.14 | 1.14 | 97 | 1002.8 |
| 20260507210030 | 50 | 172 | 0.0 | 0.0 | 0.13 | 1.14 | 1.14 | 98 | 1002.5 |
| 20260507204528 | 50 | 165 | 0.0 | 0.0 | 0.20 | 1.12 | 1.12 | 98 | 1003.2 |
| 20260507203025 | 49 | 149 | 0.0 | 0.0 | 0.31 | 1.12 | 1.12 | 97 | 1004.1 |
| 20260507201524 | 49 | 210 | 0.0 | 0.0 | 0.46 | 1.07 | 1.07 | 97 | 1004.2 |
| 20260507200032 | 50 | 157 | 0.0 | 0.0 | 0.53 | 1.02 | 1.02 | 98 | 1004.6 |
| 20260507194521 | 47 | 170 | 0.0 | 0.0 | 0.54 | 0.93 | 0.93 | 97 | 1005.4 |
| 20260507193022 | 48 | 163 | 0.0 | 0.0 | 0.54 | 0.79 | 0.79 | 95 | 1005.9 |
| 20260507191516 | 53 | 207 | 0.0 | 0.0 | 0.43 | 0.60 | 0.60 | 96 | 1005.3 |
| 20260507190028 | 53 | 179 | 0.0 | 0.0 | 0.34 | 0.49 | 0.49 | 96 | 1005.0 |
| 20260507184512 | 53 | 160 | 0.0 | 0.0 | 0.24 | 0.38 | 0.38 | 96 | 1005.5 |
| 20260507183017 | 53 | 220 | 0.0 | 0.0 | 0.11 | 0.24 | 0.24 | 95 | 1005.9 |
| 20260507181511 | 54 | 161 | 0.0 | 0.0 | 0.02 | 0.16 | 0.16 | 95 | 1005.8 |
| 20260507180013 | 55 | 180 | 0.0 | 0.0 | 0.02 | 0.15 | 0.15 | 93 | 1005.4 |
| 20260507174510 | 55 | 140 | 0.0 | 0.0 | 0.01 | 0.14 | 0.14 | 92 | 1005.5 |